GFSNW_850_rhum_108.txt.gz
RH
55 52 38 31 34 37 39 47 75 52 48 72 82 85 62 66 56 71 62 52 54 55 60 64 65 62 60 59 59 59 63 66 74 58 53 52 55 54 52 54 61 61 64 58
52 52 47 28 32 31 29 41 50 49 45 78 79 70 67 68 61 59 58 56 53 51 57 59 63 60 60 67 58 59 64 68 79 43 50 54 59 56 54 54 61 68 61 40
39 52 50 30 29 34 36 37 80 46 48 65 55 58 63 62 62 61 62 55 55 53 57 58 58 58 60 70 65 69 67 66 64 45 34 42 52 48 56 56 68 46 52 37
24 38 52 33 30 40 39 46 72 64 74 62 64 62 59 60 60 61 62 58 55 52 53 55 55 53 54 70 72 72 64 80 71 65 56 56 60 59 54 65 59 56 38 48
16 22 42 42 31 37 46 58 63 60 67 69 58 62 62 60 60 59 53 54 58 57 52 46 45 50 53 46 65 68 69 80 71 83 49 54 66 56 56 56 54 53 48 48
24 17 22 46 33 39 48 54 51 51 72 63 52 56 62 61 67 62 65 61 56 57 55 62 59 59 62 58 55 60 65 74 79 68 53 54 50 41 46 52 52 51 57 39
47 19 20 23 48 37 47 49 49 46 46 57 52 66 64 59 64 61 63 68 59 54 59 60 66 71 69 68 63 62 63 69 72 82 60 43 31 39 42 47 43 45 42 45
50 42 16 22 26 50 44 46 50 51 37 52 58 66 66 67 68 68 66 61 58 59 59 50 43 37 45 56 68 69 66 63 74 82 66 38 29 46 49 50 37 37 42 39
39 53 32 19 22 32 54 50 49 55 57 43 54 60 68 58 58 59 67 65 66 66 56 50 46 30 32 35 50 70 73 65 73 70 76 42 23 40 50 46 37 30 41 43
46 46 57 23 22 27 43 55 58 50 61 49 53 56 54 64 69 58 68 69 73 70 59 53 46 44 46 40 44 68 77 82 90 75 78 56 37 45 51 43 24 35 54 51
91 52 57 51 20 26 34 51 58 67 56 51 48 49 55 64 69 49 62 61 74 71 66 58 51 57 49 56 45 47 51 62 71 73 81 80 45 56 41 30 34 39 45 43
95 88 48 72 36 23 39 52 60 70 74 61 57 58 49 52 53 52 61 65 65 62 61 63 60 63 63 51 48 49 52 37 34 44 41 35 45 38 40 42 47 49 50 47
96 97 76 67 73 32 35 54 65 69 80 64 60 58 62 64 64 63 61 70 64 68 70 66 63 68 59 55 58 51 45 45 45 46 30 36 34 39 42 42 44 44 44 46
93 99 95 80 87 65 32 44 60 77 77 84 62 55 55 56 57 62 70 71 70 75 78 77 68 69 61 57 50 54 38 50 44 46 40 40 41 43 43 47 51 52 51 52
97 100 100 82 98 89 46 38 44 70 76 79 70 63 63 66 61 66 72 81 81 80 81 87 88 75 73 68 75 69 54 48 53 46 36 37 34 39 44 54 53 54 60 56
95 99 100 93 99 99 57 49 69 75 82 87 87 63 63 60 67 77 80 86 89 84 85 80 82 81 77 77 72 48 52 52 46 40 40 43 44 48 51 54 52 49 55 61
100 99 99 99 99 100 70 53 66 75 85 73 76 69 65 82 84 89 92 90 89 88 88 96 85 86 89 86 67 33 43 43 44 47 52 58 55 56 55 57 51 48 41 57
100 100 100 100 99 100 95 79 61 77 73 65 88 84 60 84 91 92 91 96 98 95 92 99 93 94 92 93 60 54 49 49 50 49 52 53 59 64 62 57 43 45 53 62
100 100 100 100 99 98 90 83 79 76 76 73 88 85 80 82 85 88 95 97 93 94 93 90 91 83 96 67 56 56 49 54 49 50 51 56 60 58 45 52 54 60 65 67
100 100 100 100 99 98 90 90 98 100 100 96 96 73 77 76 94 91 92 98 85 98 81 95 95 86 67 64 57 45 44 46 52 58 55 48 41 56 59 62 65 65 69 71
100 100 100 100 98 92 89 95 99 98 99 95 96 85 75 70 82 75 86 86 86 99 82 92 89 88 66 48 51 54 48 44 47 47 46 39 51 52 58 61 63 64 66 68
100 100 100 100 100 99 99 95 89 95 87 82 91 90 68 74 68 76 91 86 91 96 89 95 94 74 49 40 38 37 34 30 29 29 31 48 49 51 56 57 58 63 66 69
100 100 100 99 99 97 96 96 94 94 83 92 94 88 70 80 79 83 84 98 93 86 94 91 77 59 40 38 37 29 24 23 23 27 33 46 54 56 51 51 55 62 65 68
99 99 98 96 96 92 84 78 78 63 69 83 75 94 81 86 88 79 95 75 82 98 99 83 75 40 32 32 32 28 21 21 23 26 31 38 50 53 52 51 53 60 63 64
100 99 96 96 79 82 74 71 62 62 71 77 77 81 79 86 88 84 86 96 99 89 77 76 41 30 31 30 27 20 20 20 21 24 26 31 41 49 52 51 53 58 60 52
95 100 99 99 96 93 82 67 72 67 81 69 67 85 91 87 85 97 94 83 83 71 84 35 31 25 25 30 20 17 18 20 22 25 26 28 32 38 45 48 49 49 48 47
99 98 71 82 82 81 78 74 62 60 81 90 95 97 91 93 92 91 76 83 75 44 27 26 25 22 22 25 23 18 18 19 21 26 27 27 32 37 39 38 43 46 46 44

GFSNW_850_rhum_114.txt.gz
RH
32 43 24 21 27 27 38 52 81 39 52 73 57 86 50 49 53 56 48 46 44 43 45 45 45 45 48 44 46 53 56 59 78 61 46 47 52 59 60 80 55 63 63 71
15 31 36 22 24 26 28 48 51 43 54 90 84 56 58 53 53 49 49 46 46 43 44 49 44 44 47 48 51 61 52 66 85 59 49 46 56 52 55 52 57 73 76 53
25 14 30 28 26 27 29 48 90 50 48 47 47 50 51 56 54 50 49 46 44 45 46 44 48 46 55 50 54 58 59 61 68 74 47 52 56 50 47 56 84 67 59 48
43 24 13 28 27 31 42 48 62 56 82 52 45 46 44 50 54 53 50 48 48 45 46 42 46 40 51 56 60 62 64 78 67 66 56 57 59 56 52 56 59 70 52 51
45 42 23 14 25 32 36 56 57 48 47 49 47 54 48 47 49 48 48 53 42 43 50 43 46 41 41 42 65 64 63 87 68 79 58 57 64 54 51 51 49 48 47 49
51 46 40 21 17 26 38 45 47 51 47 44 44 45 43 45 47 47 48 46 46 47 46 46 43 44 42 43 47 69 64 84 82 86 65 65 75 48 48 45 43 46 57 44
79 61 46 37 20 23 34 34 40 48 48 44 40 44 46 46 47 54 45 51 50 56 48 42 43 51 53 49 46 43 55 65 73 83 74 89 49 28 31 39 38 39 37 36
84 83 58 47 37 22 27 38 40 58 58 35 33 41 47 47 50 55 51 50 50 54 50 58 48 46 44 46 50 52 50 61 80 91 87 61 46 38 44 46 41 35 37 36
86 85 84 59 50 39 25 31 42 48 62 44 37 40 38 51 47 46 56 56 55 53 57 51 55 47 29 46 63 53 59 58 68 71 88 77 36 40 38 41 61 34 32 32
82 85 83 85 76 54 41 34 34 46 65 48 44 44 48 45 48 55 50 60 68 66 66 66 57 59 35 41 40 82 80 69 83 76 78 70 38 42 41 43 37 30 30 32
81 84 84 83 85 77 59 49 41 44 65 40 45 41 46 48 51 52 56 61 68 72 76 63 57 55 44 48 37 64 76 90 88 76 84 87 43 48 46 36 29 30 34 35
78 85 82 82 85 87 82 62 52 45 51 44 41 41 40 51 53 53 49 52 54 54 70 67 60 60 51 50 56 32 46 46 55 61 65 39 38 33 31 33 37 38 38 39
78 93 90 81 83 89 86 86 70 56 68 62 65 50 42 41 44 50 54 51 52 57 66 72 71 75 62 66 59 48 37 28 47 39 35 30 28 33 31 34 36 35 38 39
80 98 100 93 88 86 85 83 90 80 61 85 56 49 49 46 46 53 58 54 65 68 68 75 79 72 46 61 54 58 47 40 45 44 37 31 31 30 30 30 32 34 39 42
76 96 100 100 94 88 83 85 83 66 68 91 58 60 64 64 62 59 65 70 70 76 79 95 93 65 64 58 61 63 49 43 46 46 33 34 31 33 33 33 32 39 39 46
84 89 98 100 100 98 96 90 66 69 71 75 96 78 68 64 61 66 73 73 82 82 80 78 69 67 67 93 89 48 36 40 40 36 36 35 34 35 36 40 40 44 50 53
63 69 93 97 100 100 99 84 75 85 85 76 86 85 75 64 74 81 93 95 96 90 85 84 81 78 70 96 74 37 32 32 36 37 38 42 40 41 42 43 46 53 52 54
65 64 68 83 100 100 99 100 100 100 93 78 94 91 75 71 90 91 98 95 98 94 91 88 91 81 86 96 61 51 49 46 43 38 38 40 43 45 48 50 51 54 57 57
58 67 80 96 98 100 98 100 100 100 93 96 94 96 94 76 86 87 91 90 83 88 98 91 88 91 96 76 63 59 54 49 47 45 42 45 46 48 48 50 54 53 44 50
66 88 98 97 99 100 100 100 100 100 100 100 98 79 97 69 84 86 83 86 83 92 81 82 98 82 62 57 53 51 52 54 47 51 52 46 49 46 41 38 36 43 51 53
82 94 96 93 97 99 100 100 99 99 98 99 99 89 83 71 88 84 76 92 90 95 87 92 92 89 65 48 47 42 42 45 52 53 49 44 42 40 42 36 40 47 55 56
98 100 97 99 97 100 99 99 98 99 88 83 85 86 87 80 69 77 80 95 91 96 86 91 91 82 55 40 33 32 32 41 45 55 56 51 49 47 34 37 42 47 55 55
99 89 98 99 98 100 98 96 99 97 81 82 85 90 80 78 72 83 93 99 93 77 89 92 87 59 36 30 30 36 38 33 49 57 58 55 46 41 28 36 45 49 48 50
85 100 98 98 89 98 91 92 90 74 79 85 83 85 79 75 92 87 98 86 84 98 94 89 88 29 28 29 27 34 36 29 26 27 36 32 27 25 29 33 42 45 45 48
98 99 95 94 86 88 83 81 76 64 77 82 90 92 92 99 99 98 98 97 95 94 87 85 34 37 27 25 24 27 26 29 25 22 22 22 25 27 27 32 35 43 45 45
98 98 95 96 96 92 95 82 80 76 77 87 93 87 91 95 97 98 94 96 92 82 88 41 30 33 42 37 30 28 28 31 30 29 25 21 21 25 28 32 31 34 40 40
99 98 89 80 74 80 74 79 78 80 84 98 98 98 90 97 98 99 96 95 87 59 50 44 49 51 42 38 35 30 35 36 38 36 33 33 22 22 29 30 24 30 32 36

GFSNW_850_rhum_117.txt.gz
RH
15 30 27 22 25 33 44 54 65 53 56 65 75 90 56 51 55 56 60 52 51 50 49 50 51 54 53 46 48 60 56 69 85 73 54 62 72 76 72 86 66 76 78 81
24 15 28 23 27 26 31 43 51 48 54 86 91 61 61 56 58 57 52 50 47 45 48 53 47 50 50 48 53 61 58 73 86 69 56 52 59 61 65 63 68 81 80 55
43 23 16 25 24 28 32 46 76 46 44 50 59 56 56 62 54 54 51 51 46 48 51 46 52 53 56 51 55 58 59 75 67 48 45 58 66 60 59 69 89 66 61 47
47 42 21 17 26 27 42 50 57 62 83 59 49 50 50 56 60 55 51 51 51 52 55 50 54 46 61 58 60 61 70 88 77 74 72 69 68 68 64 66 60 76 47 56
64 48 42 20 18 29 32 50 57 51 51 48 48 54 53 50 52 52 52 57 50 46 54 51 56 48 45 50 77 73 74 87 80 89 70 71 77 65 63 63 60 56 53 55
72 65 47 44 27 19 29 45 47 52 53 52 53 55 48 49 48 48 49 53 53 53 52 54 49 48 44 49 72 84 77 88 84 89 72 73 77 57 53 55 56 55 66 48
68 74 68 53 44 29 27 33 45 49 59 52 50 46 47 49 51 55 50 51 54 53 52 44 38 47 52 54 59 60 68 80 81 91 78 85 40 38 32 48 47 45 43 42
73 74 75 77 56 46 29 26 36 50 63 50 40 41 47 49 50 53 51 50 53 54 49 65 58 52 50 52 65 67 58 71 83 88 94 64 59 40 39 40 42 41 45 41
77 77 76 75 78 62 46 36 30 43 64 52 41 42 40 56 58 54 55 58 55 55 65 64 61 56 44 41 64 60 64 65 75 83 96 83 44 40 40 36 47 33 37 40
72 78 80 79 77 80 70 54 43 42 57 41 48 44 49 47 53 62 56 58 60 63 79 76 72 69 38 42 48 84 85 80 85 76 79 74 53 41 39 46 34 33 33 33
74 73 83 81 79 82 82 73 69 59 49 47 42 45 45 51 54 59 53 58 70 80 80 79 71 66 51 50 51 78 82 91 89 81 79 89 46 48 44 38 29 29 27 27
81 77 80 88 82 82 89 85 79 80 68 58 57 54 49 47 47 51 48 53 61 63 82 79 73 66 63 58 60 47 62 57 74 70 67 44 41 36 31 31 27 29 30 31
85 85 88 90 93 90 89 89 83 80 77 65 61 51 46 42 46 50 56 53 51 56 64 72 82 82 75 76 69 53 44 39 52 47 43 46 38 34 34 34 36 33 34 36
84 82 92 100 100 99 97 94 90 86 74 80 58 47 52 54 51 50 58 60 62 66 69 69 88 84 58 70 58 60 51 52 51 47 36 33 31 30 30 32 32 30 30 36
89 90 88 94 100 100 99 97 88 71 68 73 58 64 67 66 63 66 62 70 71 70 72 91 97 80 71 69 76 61 50 49 59 54 33 35 33 31 31 32 32 33 33 36
92 91 76 87 99 100 100 93 71 70 80 83 94 78 75 73 65 62 67 72 81 80 78 84 72 70 68 92 96 66 35 36 39 41 36 36 34 35 38 38 36 36 37 38
80 71 71 87 88 100 100 88 81 92 98 87 86 75 78 65 68 75 82 88 92 89 85 88 83 80 71 94 96 42 40 39 40 42 47 48 43 44 40 42 42 44 45 47
66 71 70 69 71 84 100 100 100 100 100 98 98 92 81 75 82 88 93 92 94 92 94 90 92 83 79 93 66 60 56 53 47 39 39 47 47 42 43 44 46 46 48 48
54 58 54 50 74 96 99 100 100 100 99 99 99 98 90 80 87 90 91 88 94 86 99 92 91 93 97 76 69 63 55 57 56 51 55 52 47 45 51 51 50 50 45 43
52 62 62 91 94 100 99 100 100 100 100 100 99 86 97 73 82 87 92 88 88 92 87 79 98 90 65 62 52 47 44 43 47 57 65 60 57 50 45 49 45 40 34 37
67 88 91 98 99 94 99 100 100 99 98 100 98 94 86 80 88 88 84 97 91 91 89 90 93 90 74 43 45 38 38 45 44 46 53 55 60 57 46 42 42 35 38 42
94 98 93 87 99 99 99 98 99 99 94 93 95 90 88 82 80 92 94 96 95 92 92 96 90 83 39 42 34 32 33 31 28 40 47 51 58 58 52 48 46 36 44 47
98 82 80 99 99 99 98 95 99 99 83 87 88 89 85 84 77 84 99 98 91 86 90 87 85 56 33 40 42 30 30 31 29 25 31 50 53 56 56 52 48 37 46 50
80 96 91 94 94 93 92 93 90 73 80 81 83 83 79 79 92 90 100 88 99 97 98 90 87 41 40 42 40 32 25 32 34 36 37 33 28 25 24 27 30 34 41 45
98 93 94 90 83 80 87 81 82 75 77 78 90 95 97 98 99 97 98 100 97 94 86 85 44 51 48 43 37 41 34 34 33 35 41 41 36 35 37 32 27 31 33 37
97 100 90 85 95 90 94 91 88 81 70 81 94 91 96 95 95 100 96 96 94 83 89 49 50 48 46 48 43 42 40 42 44 38 38 43 37 38 41 37 35 25 29 32
99 98 98 86 94 84 76 75 75 82 82 94 96 99 91 94 99 99 94 96 75 49 44 46 43 43 34 34 40 43 46 49 50 45 45 43 43 44 43 43 35 36 32 34

GFSNW_850_rhum_120.txt.gz
RH
18 23 28 30 28 40 50 60 60 54 57 60 77 89 60 52 54 57 62 55 51 55 54 53 55 59 54 48 50 62 57 74 88 76 57 65 71 79 79 83 59 85 80 81
39 18 21 26 30 29 40 48 54 50 52 80 92 63 61 57 57 59 56 55 49 47 51 54 50 55 51 51 54 64 60 72 85 51 58 56 72 74 72 67 74 81 83 53
47 40 19 20 28 31 40 45 70 46 46 55 66 62 62 60 55 56 53 54 48 50 53 49 52 55 56 52 56 59 58 77 66 38 30 60 70 67 70 74 95 75 65 48
56 47 43 24 20 29 38 42 60 65 80 59 54 54 57 61 62 56 53 54 53 54 59 54 57 51 63 60 60 64 69 86 84 80 74 73 71 70 66 72 69 78 43 53
62 58 51 46 23 22 27 44 53 54 55 52 50 58 55 56 54 56 55 58 52 53 57 50 56 49 56 59 79 74 79 82 84 94 77 77 82 70 72 69 66 63 59 60
59 64 63 52 46 23 22 36 47 50 60 57 53 58 51 50 48 49 50 52 55 56 54 52 50 48 46 49 80 84 85 93 86 89 74 78 77 56 54 63 68 63 71 51
62 63 67 66 56 46 27 24 36 43 57 58 54 49 48 51 52 50 51 52 55 50 52 49 44 55 61 63 63 66 84 82 87 94 79 65 36 47 42 52 49 56 52 49
65 66 67 68 70 58 46 38 30 36 51 54 45 42 45 50 52 56 53 49 50 52 54 63 55 47 46 66 69 76 68 80 83 92 96 63 50 40 39 43 38 40 44 41
64 66 69 70 72 73 61 56 46 38 45 44 44 43 43 54 61 58 58 59 58 58 62 65 55 46 38 39 64 66 73 67 74 89 97 65 33 39 40 35 44 28 39 39
67 68 68 73 75 77 75 70 67 54 48 41 45 46 45 51 56 63 58 61 62 63 82 75 78 74 44 48 47 78 85 86 83 85 92 76 52 44 39 45 26 27 31 28
67 70 73 69 77 79 83 78 77 73 67 63 51 48 46 52 56 55 49 59 70 79 77 78 75 72 54 51 49 75 78 92 96 87 88 89 46 48 47 36 28 26 28 28
69 73 78 71 71 84 91 85 81 82 74 62 62 59 53 50 45 50 48 54 65 64 77 83 76 72 69 61 61 62 62 54 70 72 68 42 43 37 29 30 34 33 28 26
72 79 79 75 78 93 98 98 90 83 82 68 62 56 48 48 50 51 54 56 51 57 67 72 85 82 78 80 81 56 50 43 61 60 50 46 42 37 32 32 34 32 35 33
82 80 82 82 85 97 100 100 99 99 85 84 62 53 51 57 58 51 54 57 62 66 71 72 87 84 65 78 68 71 52 49 57 52 39 36 34 33 31 30 31 31 32 33
82 81 84 85 84 98 99 98 100 90 74 73 67 65 65 68 63 69 70 65 71 71 71 90 97 85 80 75 86 68 52 58 68 60 39 41 39 35 36 37 34 35 35 34
80 85 84 82 77 94 100 99 74 74 95 88 96 76 75 78 71 68 69 74 79 81 76 80 67 73 69 91 95 66 50 46 45 45 42 43 43 42 40 44 43 42 40 39
79 80 76 71 75 92 99 99 84 77 99 96 90 84 79 75 67 77 84 88 92 88 85 93 86 79 76 94 86 53 47 52 48 44 46 53 47 50 50 49 48 47 44 43
58 57 63 66 70 76 92 95 100 100 99 99 99 93 79 80 82 86 88 91 93 92 93 96 88 79 82 96 72 60 55 56 52 48 52 56 57 48 44 52 52 46 51 48
53 51 56 54 74 99 99 96 100 100 100 100 100 99 90 82 89 90 92 86 95 95 99 94 90 96 98 80 70 60 46 55 55 48 43 44 55 59 56 60 55 56 55 55
53 56 59 95 100 100 100 100 100 100 100 100 99 94 96 75 81 87 89 90 88 96 90 95 98 91 67 58 46 42 40 38 43 51 43 45 48 62 61 61 55 54 50 44
70 80 94 95 98 99 98 99 100 99 99 99 99 95 92 82 90 93 94 98 91 98 88 93 94 96 72 40 39 41 39 38 37 41 40 41 43 51 56 53 54 54 54 53
92 92 91 89 99 99 99 99 99 98 95 97 99 93 91 88 87 97 99 98 98 95 97 98 92 80 46 42 42 37 28 29 28 30 38 39 39 37 37 46 51 46 42 45
97 85 95 99 93 100 99 86 99 100 86 91 96 95 88 89 83 88 98 98 94 92 98 91 82 66 42 45 50 49 41 33 23 20 28 39 39 38 41 40 40 42 37 29
82 97 99 88 98 93 91 94 89 74 79 87 86 88 82 84 93 94 99 88 97 97 98 91 86 51 51 53 56 40 34 43 41 35 39 39 46 45 43 44 42 43 40 38
98 88 98 91 74 77 88 94 83 79 82 85 86 91 95 98 98 93 91 99 95 94 90 87 47 52 46 49 50 42 46 47 39 35 42 50 51 49 47 47 47 46 47 47
95 100 91 80 83 82 89 89 89 85 81 82 89 98 96 96 94 98 91 96 94 83 89 51 51 47 38 42 45 48 47 43 44 44 47 52 54 51 51 51 50 50 52 52
99 98 96 85 90 80 77 82 81 86 87 98 99 96 93 93 99 98 92 96 84 49 50 48 44 45 37 41 49 50 46 34 45 50 54 54 53 55 56 56 56 56 57 58

GFSNW_850_rhum_126.txt.gz
RH
50 43 23 30 28 38 51 56 69 68 75 59 79 88 60 54 57 59 60 56 53 57 60 60 63 61 58 54 54 63 63 73 86 74 63 65 71 78 78 75 60 90 81 77
60 52 44 25 30 32 40 50 56 60 61 74 92 69 66 57 60 60 59 57 52 51 57 58 55 58 56 54 58 66 61 68 69 40 52 73 80 81 77 71 73 85 74 48
58 57 52 37 27 38 48 42 68 50 50 61 68 64 64 64 60 58 56 56 52 52 55 54 55 57 59 58 58 61 59 75 52 35 24 60 82 81 86 76 95 81 64 41
56 56 55 50 29 29 38 37 67 63 74 65 63 58 61 61 57 59 56 55 55 54 58 58 59 56 66 63 67 69 69 76 84 78 75 67 63 63 80 91 74 76 40 56
59 55 56 54 45 26 28 41 49 53 61 58 54 60 60 58 58 56 55 58 56 57 57 55 51 57 63 60 80 73 83 81 87 97 81 86 90 81 77 69 69 78 71 70
60 57 56 55 54 48 34 34 46 50 66 62 50 58 61 59 52 52 53 56 58 59 59 53 51 50 52 53 78 83 87 92 87 85 76 80 70 64 67 77 78 69 76 55
62 61 58 58 56 55 54 51 39 37 56 61 54 55 52 57 55 50 54 55 56 47 53 51 54 57 63 66 66 73 92 86 89 96 78 51 29 41 54 68 62 71 64 59
62 59 61 63 61 60 58 58 56 47 47 52 48 48 50 51 53 60 56 54 52 52 52 61 50 42 52 77 74 80 78 84 82 91 98 61 28 44 54 53 41 44 54 53
65 64 62 65 66 62 62 63 64 59 54 60 41 44 45 52 55 56 58 60 60 60 65 65 48 46 36 50 76 85 84 77 76 92 93 54 26 38 41 34 38 28 44 42
68 68 67 66 67 67 65 67 67 67 65 56 47 49 46 45 56 57 58 67 69 64 77 66 71 68 52 51 54 92 96 94 95 92 90 78 56 43 40 39 33 28 32 34
67 70 71 70 70 68 67 69 70 72 72 64 68 57 51 54 54 53 53 63 67 80 72 72 73 74 67 55 49 82 87 96 94 86 90 85 50 51 42 34 34 37 40 41
71 71 73 74 74 75 72 74 72 73 73 64 65 70 63 57 53 50 55 52 65 65 76 84 84 78 83 70 62 64 58 63 82 78 71 46 45 40 37 41 44 43 45 46
84 82 80 78 74 72 72 78 86 78 86 74 66 65 64 69 66 58 54 56 53 64 65 68 82 80 79 79 82 59 56 54 62 53 41 49 39 41 47 51 47 42 44 50
86 85 88 86 79 70 72 82 98 98 95 96 71 62 61 60 58 62 62 59 60 63 72 76 88 87 68 76 72 71 57 57 62 67 47 44 40 45 44 39 37 51 56 58
84 83 83 80 78 79 75 72 90 100 91 85 72 73 75 76 72 74 74 67 69 72 70 90 90 81 84 85 87 91 61 63 70 71 57 63 59 42 35 51 60 62 60 58
86 81 73 68 73 74 78 96 78 84 89 83 97 81 90 84 80 76 77 79 81 78 75 76 69 75 75 91 90 60 55 52 55 56 58 51 37 40 51 62 57 54 57 52
77 70 64 64 70 72 77 93 96 88 84 96 97 93 91 83 80 78 81 84 87 86 80 89 90 83 88 98 97 57 56 56 54 53 46 42 43 49 45 47 50 51 50 51
63 62 62 60 70 76 91 84 94 100 99 98 100 90 89 84 79 83 88 94 94 95 92 96 95 86 92 99 78 68 61 51 36 38 40 42 39 36 35 37 41 40 40 42
64 61 59 59 61 85 88 92 99 98 97 99 100 99 94 83 85 88 90 91 95 96 99 98 95 92 98 78 70 60 52 42 34 28 25 27 30 35 35 32 26 40 38 39
61 57 57 91 94 94 94 100 98 90 99 100 98 96 98 79 87 89 89 92 98 99 91 97 99 94 67 67 59 58 41 45 43 40 38 34 31 28 30 32 38 45 51 53
58 56 81 96 97 95 98 90 98 99 99 99 99 100 96 84 88 88 93 94 95 95 92 96 97 94 76 58 58 45 44 44 44 46 47 48 43 38 32 26 20 28 37 48
73 76 84 88 98 90 98 97 96 100 81 90 98 94 97 97 93 98 99 95 96 96 93 96 98 84 64 48 51 62 61 45 48 48 49 49 50 38 38 32 20 16 25 32
85 81 90 96 86 99 90 100 81 97 88 97 99 98 95 97 97 98 95 97 95 95 98 95 88 63 54 51 52 49 42 40 34 37 39 35 33 32 34 38 35 32 30 31
73 89 93 93 100 92 91 91 88 79 86 95 99 98 96 96 98 95 98 83 96 98 98 93 89 58 60 50 44 40 34 30 30 27 27 33 36 36 43 51 50 52 49 41
73 95 95 97 80 79 90 81 84 85 93 96 98 98 97 99 98 92 94 97 91 90 89 89 61 57 51 40 32 30 30 35 35 29 38 38 39 42 38 38 43 44 42 49
82 94 85 78 91 90 92 88 82 85 87 95 97 92 92 91 96 97 94 93 84 84 89 54 51 44 39 33 27 26 23 22 26 30 37 44 44 43 43 46 41 36 46 56
98 94 95 72 74 69 69 70 68 85 94 97 98 98 93 95 97 95 93 94 86 49 49 45 37 33 29 28 25 27 39 42 44 46 45 45 45 50 60 61 41 48 54 67

GFSNW_850_rhum_129.txt.gz
RH
58 52 37 29 30 34 48 52 69 51 51 55 77 88 63 55 60 62 60 55 56 58 62 63 64 60 57 56 57 64 64 69 88 71 67 66 73 76 73 66 54 85 74 63
54 54 49 26 34 37 43 48 54 49 39 74 93 69 67 59 60 60 60 58 53 52 59 59 57 58 58 57 59 68 63 62 60 40 51 74 81 81 76 67 69 84 60 37
55 52 51 38 26 41 46 38 69 49 47 62 69 66 65 67 61 60 59 57 52 54 57 56 59 62 61 59 58 61 58 71 44 32 24 62 82 86 85 72 89 75 59 38
55 54 50 49 34 28 38 36 69 62 76 69 63 59 62 64 63 61 58 58 55 54 61 61 61 58 70 65 72 71 67 70 82 74 72 63 60 62 86 89 71 63 46 55
56 55 55 50 49 35 29 40 47 55 63 59 55 62 61 57 61 59 57 55 57 59 55 50 60 63 68 64 81 74 83 78 87 96 77 82 89 79 73 69 74 77 68 68
60 55 53 54 50 48 47 38 43 45 70 61 46 53 58 55 54 53 54 55 61 61 60 52 50 48 51 53 79 84 85 88 85 82 73 76 60 66 71 78 76 66 74 54
61 59 57 54 53 53 51 50 40 32 54 58 52 54 54 55 57 54 57 58 57 53 55 55 56 60 67 66 73 74 93 84 88 94 73 47 28 45 55 69 65 70 64 61
63 61 61 60 56 53 56 57 55 50 52 53 47 47 48 50 51 58 57 57 57 56 54 60 48 44 56 81 84 78 79 83 84 89 95 58 33 52 59 53 37 51 64 56
67 65 64 63 62 60 57 56 58 58 56 62 40 44 47 54 53 51 55 62 62 58 64 63 48 48 37 68 85 88 84 79 76 92 92 48 25 36 41 37 42 30 43 41
69 68 68 66 64 64 61 62 60 60 63 58 45 50 50 45 54 56 57 67 70 62 75 63 65 68 52 51 66 98 96 93 93 90 93 77 55 41 42 42 40 37 41 44
70 70 70 68 67 66 65 66 63 64 66 61 64 59 51 53 54 57 54 67 70 79 73 70 67 75 63 60 53 84 93 94 90 76 86 86 49 49 40 44 45 47 44 48
72 76 75 73 72 71 64 62 60 61 61 65 65 67 66 62 56 52 59 52 58 60 74 82 81 79 85 70 59 65 61 67 84 79 73 49 49 47 44 50 53 50 57 58
79 83 80 78 78 73 64 61 57 54 67 67 73 66 67 69 72 59 55 57 52 65 60 64 81 75 79 78 79 59 56 56 63 55 47 55 44 47 51 43 52 55 55 57
93 89 84 84 82 73 64 59 66 84 75 93 72 64 62 63 63 68 67 62 60 64 71 74 87 85 66 77 71 69 57 59 61 65 49 44 47 50 42 46 52 55 54 56
98 87 87 86 79 73 66 64 69 90 89 86 74 72 75 77 80 75 72 69 69 71 73 90 92 81 83 85 88 92 60 58 64 67 58 60 56 36 45 46 46 48 50 48
94 91 85 77 71 69 66 86 76 85 82 80 95 83 91 87 84 82 81 82 82 78 73 74 69 75 75 88 93 61 58 60 59 60 55 48 40 44 43 40 37 35 36 42
94 85 77 70 60 66 65 80 89 89 84 90 94 88 94 84 80 78 82 87 88 85 78 87 85 80 85 97 98 59 61 62 51 46 45 42 37 38 36 36 32 30 29 31
85 74 63 58 56 64 77 86 95 99 96 90 96 91 92 87 80 82 88 93 95 94 92 98 97 90 95 99 84 71 63 42 28 29 31 33 33 30 27 23 23 20 18 19
72 58 56 55 60 76 86 94 98 99 94 96 100 97 97 86 88 89 91 92 91 96 99 97 96 92 98 85 75 59 45 38 40 41 40 38 36 33 29 26 22 24 20 16
71 57 51 64 84 93 91 90 98 93 96 94 99 96 98 80 88 91 89 93 98 98 91 98 99 94 72 65 60 62 45 42 42 43 39 41 39 38 39 40 35 30 28 33
57 52 63 85 95 98 92 90 92 99 98 95 99 97 98 86 89 88 89 93 96 97 92 96 97 94 76 66 62 68 54 43 40 37 36 35 36 35 33 31 28 27 34 42
51 61 74 90 98 89 82 93 95 97 80 83 97 97 95 97 91 97 100 98 97 94 93 97 95 85 65 64 67 59 48 33 30 26 28 30 36 36 40 41 43 38 38 43
71 75 91 90 88 90 98 99 96 95 75 86 96 99 98 99 99 99 98 96 90 94 98 91 90 62 56 47 39 31 22 18 15 14 18 30 38 37 37 34 28 32 36 26
63 81 96 93 98 94 91 91 88 78 86 96 98 99 98 98 99 97 97 87 94 95 100 93 90 59 54 44 40 25 17 15 18 28 37 38 33 27 24 30 36 45 40 37
70 87 97 98 81 81 93 78 86 85 94 98 98 98 98 98 97 95 95 96 87 80 89 88 52 57 52 42 32 20 17 21 29 38 36 32 27 28 32 37 53 62 69 71
75 96 92 86 92 91 95 99 84 78 90 100 100 92 92 88 95 97 90 86 94 85 89 54 55 48 42 33 23 20 23 31 39 36 34 28 30 39 46 58 63 63 68 76
98 92 88 74 75 68 67 66 65 76 93 98 97 97 98 94 95 96 90 94 87 48 46 47 44 39 26 21 24 26 32 39 36 31 32 37 37 42 54 65 67 68 77 86

GFSNW_850_rhum_132.txt.gz
RH
53 52 34 29 32 36 51 53 64 48 47 59 62 69 56 57 59 64 55 48 48 46 52 51 48 43 45 52 52 52 53 45 61 52 58 56 59 52 43 32 39 48 43 29
49 50 46 28 37 41 45 45 48 47 37 63 68 62 59 58 56 57 54 53 49 48 50 49 50 51 58 58 51 50 50 44 40 35 51 60 61 56 52 44 41 48 28 15
48 47 47 44 29 37 36 36 69 45 42 55 47 50 57 60 64 58 58 54 50 48 50 49 52 54 59 60 57 60 50 46 35 20 21 43 57 60 59 47 58 29 32 19
51 48 47 46 42 31 36 35 61 55 62 50 51 50 54 56 55 60 58 52 48 45 47 50 51 52 61 63 73 65 54 53 60 46 43 40 39 37 58 64 47 40 21 25
52 50 47 46 46 42 34 41 49 53 61 61 48 53 52 49 56 53 50 52 49 51 44 40 44 49 54 52 72 60 66 63 69 80 55 60 64 52 50 47 48 45 42 44
52 51 50 45 46 45 47 39 38 40 66 52 38 43 53 50 52 58 54 51 51 54 52 54 54 51 52 49 58 62 64 66 71 54 55 52 42 35 43 49 49 45 51 36
59 54 53 50 45 45 50 49 43 35 46 43 38 52 55 54 54 46 57 58 49 49 54 53 53 58 63 60 66 63 67 65 67 70 49 45 29 37 38 46 42 45 43 39
63 61 58 55 53 50 47 47 52 48 45 46 45 49 48 53 54 58 55 60 56 53 55 46 42 35 51 65 70 65 66 55 56 65 56 34 34 46 46 43 34 36 43 37
67 65 63 61 57 55 53 51 50 55 55 49 36 41 46 42 40 44 61 64 62 60 52 46 36 31 32 50 73 73 69 63 53 60 62 39 24 35 40 35 36 37 40 40
69 68 67 65 61 59 56 57 53 54 60 56 44 45 46 44 48 41 56 72 70 62 51 43 40 42 43 39 50 79 82 76 73 61 64 47 41 41 42 42 43 46 46 46
70 70 68 67 66 65 60 58 56 55 59 58 56 56 49 50 50 46 58 62 68 66 57 50 48 50 45 47 42 66 66 76 73 68 74 74 49 46 42 47 50 49 50 54
71 70 73 74 73 70 66 58 56 52 53 66 65 68 63 59 56 52 55 57 59 60 53 57 55 56 60 48 43 55 51 44 54 52 50 44 51 48 49 48 51 56 63 64
79 78 79 75 74 74 68 60 54 49 58 65 68 74 73 73 74 61 55 59 53 63 58 58 60 60 53 56 54 46 45 50 47 48 45 47 45 50 46 52 57 55 56 53
99 93 87 80 78 77 69 60 51 54 61 83 71 67 66 66 69 74 66 61 57 61 69 74 67 64 59 57 56 57 52 51 47 45 42 50 52 56 47 48 42 38 36 40
99 99 94 86 83 74 66 58 58 64 68 79 76 72 74 75 76 70 68 73 71 70 74 81 76 80 70 71 74 69 55 46 51 49 53 52 52 56 45 33 33 33 31 26
98 98 93 89 80 72 64 78 75 76 77 70 81 76 89 86 85 83 83 82 80 76 72 76 74 74 77 78 72 57 62 60 55 52 56 56 48 46 33 26 23 20 19 18
99 94 93 84 76 70 63 72 73 81 71 78 92 88 94 84 79 79 85 90 87 84 78 87 82 82 80 84 75 60 63 63 58 49 46 46 34 34 24 22 20 19 18 17
100 97 86 77 70 69 74 75 88 89 80 83 98 91 93 92 85 88 90 94 92 91 92 96 92 91 95 94 70 76 71 52 34 34 34 32 30 27 25 23 26 27 23 20
97 87 84 86 79 77 83 89 99 99 82 99 98 88 87 89 88 90 92 94 87 96 94 90 93 80 96 73 76 74 60 36 42 39 35 34 32 32 29 32 30 38 29 24
91 98 94 79 77 89 81 98 94 90 90 92 97 98 93 82 91 92 88 93 85 95 80 98 97 78 73 66 69 58 52 44 36 31 29 29 28 31 33 33 31 27 23 21
99 98 80 89 99 97 90 93 90 96 97 98 99 93 85 83 85 78 90 86 87 92 83 90 82 82 72 70 69 47 44 40 28 22 25 32 40 39 34 26 22 19 20 24
91 71 82 99 98 91 81 88 92 89 80 98 97 98 93 93 87 92 97 88 92 88 90 90 87 68 65 67 65 62 56 37 27 20 22 24 29 28 28 25 22 24 31 35
68 71 91 80 90 94 93 99 89 94 92 81 97 95 99 98 100 100 95 95 92 94 93 80 73 68 66 50 42 38 32 23 17 17 23 28 26 24 22 22 21 28 33 48
67 79 95 87 94 88 83 78 80 76 84 90 93 100 95 99 98 92 94 88 89 91 88 84 69 61 57 48 44 40 28 18 18 24 32 27 25 23 22 24 25 28 40 50
72 78 73 95 79 82 86 77 88 87 92 96 99 98 98 94 95 87 93 94 85 78 80 71 54 53 51 47 44 37 27 24 25 31 34 29 29 27 24 22 28 35 45 48
69 93 89 91 90 91 96 98 84 90 96 99 99 89 93 89 89 93 91 88 83 74 79 54 53 50 52 51 40 35 28 28 34 40 38 34 36 34 32 28 31 40 41 53
94 92 91 76 75 71 69 74 72 77 96 94 95 97 95 91 94 92 80 88 75 56 46 44 42 44 42 40 44 38 34 36 39 44 38 40 40 38 37 35 37 38 39 47